Regional Weather Roundup
Issued by NWS San Angelo, TX

Home | Current Version | Previous Version | Text Only | Print | Product List | Glossary On
Versions: 1 2 3 4 5 6 7 8 9 10 11 12 13 14 15 16 17 18 19 20 21 22 23 24 25 26 27 28 29 30 31 32 33 34 35 36 37 38 39 40 41 42 43 44 45 46 47 48 49 50
000
ASUS44 KSJT 302310
RWRSJT
WEST CENTRAL TEXAS REGIONAL WEATHER ROUNDUP
NATIONAL WEATHER SERVICE SAN ANGELO TX
600 PM CDT WED JUL 30 2014

NOTE: "FAIR" INDICATES FEW OR NO CLOUDS BELOW 12,000 FEET WITH NO
SIGNIFICANT WEATHER AND/OR OBSTRUCTIONS TO VISIBILITY.

TXZ049-054-064>066-071>073-076>078-098-099-113-114-127-128-139-140-
154-155-168>170-310000
...LOCATIONS ACROSS WEST CENTRAL TEXAS...

CITY           SKY/WX    TMP DP  RH WIND       PRES   REMARKS
SAN ANGELO     SUNNY    101  52  19 SE12      29.89F
ABILENE        SUNNY     97  59  28 S14       29.89F
DYESS AFB      SUNNY     97  63  32 SE14      29.87F
JUNCTION       MOSUNNY   98  52  21 S14G22    29.91F
SWEETWATER     SUNNY     99  55  22 SW7       29.93F
BROWNWOOD      SUNNY     99  50  19 SE14      29.90F
COLEMAN        CLEAR    100  50  18 S12       29.90F
SONORA         SUNNY     97  50  20 SE14      29.96F
OZONA          FAIR      99  46  16 S13G18    29.95F
BRADY          SUNNY     99  54  22 SE14      29.92F
$$

TEXAS PANHANDLE/OKLAHOMA PANHANDLE

CITY           SKY/WX    TMP DP  RH WIND       PRES   REMARKS
AMARILLO       CLOUDY    72  62  71 N23G31    30.13S
BORGER         CLOUDY    71  63  75 NE20G25   30.12S
CANADIAN       CLOUDY    71  67  87 N15G21    30.07R
DALHART        CLOUDY    69  59  70 N21       30.21S
DUMAS          CLOUDY    65  61  86 N15G25    30.17S
GUYMON         NOT AVBL
HEREFORD       MOCLDY    78  64  61 N22G29    30.14R
PAMPA          CLOUDY    66  62  88 N15       30.12R
PERRYTON       CLOUDY    67  63  85 NE21      30.13R
$$

SOUTHERN PANHANDLE/SOUTH PLAINS/ROLLING PLAINS

CITY           SKY/WX    TMP DP  RH WIND       PRES   REMARKS
LUBBOCK        MOSUNNY   90  64  42 NE17      30.02S
SNYDER         SUNNY     97  60  29 NE5       29.90F
CHILDRESS      SUNNY     87  67  51 N7        29.98F
SEMINOLE       MOCLDY    97  58  26 NE15G23   29.98S
$$

PERMIAN BASIN

CITY           SKY/WX    TMP DP  RH WIND       PRES   REMARKS
MIDLAND        MOSUNNY  101  52  19 NE5       29.91F
ODESSA         PTSUNNY   94  54  25 N23G40    29.95R HAZE
WINK           MOSUNNY   99  52  20 NW14      29.87F
$$

FAR WEST/SOUTHWEST MOUNTAINS/TRANS PECOS

CITY           SKY/WX    TMP DP  RH WIND       PRES   REMARKS
ALPINE         MOCLDY    93  52  24 N10       30.12S
DRYDEN           N/A    108  50  14 E10       29.87F
EL PASO        MOSUNNY  100  48  17 N15       29.98F
FORT STOCKTON  MOSUNNY   97  49  19 SW15      29.93F
GUADALUPE PASS CLOUDY    72  58  61 NE29      30.18R
MARFA          PTSUNNY   90  52  27 NE12      30.12F
PECOS          PTCLDY    92  57  30 SW15      29.89F
$$

DALLAS/FORT WORTH METROPLEX

CITY           SKY/WX    TMP DP  RH WIND       PRES   REMARKS
DFW AIRPORT    PTSUNNY   90  70  51 SE14      29.91F
FTW MEACHAM    MOSUNNY   93  70  46 SE14G22   29.90F
DAL-EXECUTIVE  PTSUNNY   91  67  44 SE15G23   29.92F
GRAND PRAIRIE  SUNNY     90  66  45 E12       29.93F
ADDISON        MOSUNNY   88  68  51 SE14G22   29.93F
MESQUITE       CLEAR     88  70  55 SE10        N/A
LANCASTER      CLOUDY    90  67  46 SE10G17   29.93F
$$

NORTH CENTRAL TEXAS

CITY           SKY/WX    TMP DP  RH WIND       PRES   REMARKS
SHRMAN/DENISON MOCLDY    79  70  73 E16       29.96F
GAINESVILLE    PTSUNNY   80  72  75 E12       29.96S
BRIDGEPORT     CLEAR     89  65  44 S12G20    29.92F
DENTON         MOSUNNY   86  72  62 SE14      29.92F
WAXAHACHIE     CLOUDY    90  65  43 SE8G16    29.93F
GRANBURY       PTCLDY    92  69  46 SE13      29.90F
$$

WESTERN NORTH TEXAS

CITY           SKY/WX    TMP DP  RH WIND       PRES   REMARKS
WICHITA FALLS  LGT RAIN  85  70  60 E5        29.90F
VERNON         MOCLDY    85  71  61 NE7       29.94F
BRECKENRIDGE   CLEAR     99  54  22 S16G22    29.87F
COMANCHE       SUNNY     97  54  23 S15       29.90F
$$

CENTRAL AND SOUTH CENTRAL TEXAS

CITY           SKY/WX    TMP DP  RH WIND       PRES   REMARKS
AUSTIN/BERGSTM PTSUNNY   97  60  29 SE12      29.90F
WACO           PTSUNNY   92  68  45 SE14      29.91F
HILLSBORO      MOCLDY    92  67  42 S13G20    29.92F
TEMPLE         MOSUNNY   91  66  43 SE17      29.93F
KILLEEN-GRAY   PTSUNNY   91  63  38 SE14      29.92F
FORT HOOD      MOSUNNY   95  63  34 SE10      29.92F
GEORGETOWN     SUNNY     93  64  38 S7        29.92F
LAGO VISTA     FAIR      94  57  28 SE5       29.95F
SAN MARCOS     SUNNY     97  57  26 S13       29.91F
NEW BRAUNFELS  SUNNY     98  58  26 SE8G16    29.90F
RANDOLPH AFB   SUNNY     99  54  22 S10       29.91F
SAN ANTONIO    MOSUNNY   97  57  26 S12       29.91F
STINSON        SUNNY     99  57  24 S12       29.88F
PLEASANTON     NOT AVBL
LA GRANGE      SUNNY     96  71  44 CALM      29.90F
GIDDINGS       PTCLDY    94  66  40 SE5       29.96F
$$

EAST TEXAS

CITY           SKY/WX    TMP DP  RH WIND       PRES   REMARKS
PARIS          CLOUDY    75  66  73 E13G18    30.01F
CLARKSVILLE    CLOUDY    76  69  80 E9        30.01F
TYLER          MOSUNNY   88  68  51 SE14      29.97F
LONGVIEW       MOSUNNY   84  70  62 E8        29.99F
PALESTINE      NOT AVBL
NACOGDOCHES    SUNNY     88  68  51 E7        29.99F
$$

TEXAS HILL COUNTRY AND EDWARDS PLATEAU

CITY           SKY/WX    TMP DP  RH WIND       PRES   REMARKS
LLANO          PTCLDY    97  55  24 SE14G20   29.94S
HORSESHOE BAY  FAIR      96  51  21 S8G16     29.93S
KERRVILLE      MOSUNNY   97  55  24 SE8       29.95F
FREDERICKSBRG  PTSUNNY   93  52  24 S15       29.95F
ROCKSPRINGS    CLEAR     95  52  23 SE14      29.98F
HONDO          SUNNY     98  55  23 SE16      29.91F
UVALDE         CLEAR    100  49  17 SE8G16    29.89F
DEL RIO        SUNNY    103  49  16 SE14      29.83F
$$

SOUTHEAST TEXAS

CITY           SKY/WX    TMP DP  RH WIND       PRES   REMARKS
COLLEGE STN    SUNNY     92  71  50 SE12      29.93F
CALDWELL       PTCLDY    93  63  36 SE12      29.96S
CROCKETT       CLEAR     93  73  52 SE3       29.99F
BRENHAM        MOSUNNY   92  69  46 SE9       29.93F
HUNTSVILLE     SUNNY     91  70  49 VRB5      29.95F
CONROE         MOSUNNY   89  72  56 VRB7      29.96F
HOUSTON BUSH   PTSUNNY   89  71  55 SE14      29.95F
HOUSTON HOBBY  MOSUNNY   88  72  58 SE13      29.95F
PERLAND        MOSUNNY   90  73  57 SE14      29.97F
WHARTON        PTCLDY    92  70  47 SE12      29.94F
$$

THE UPPER TEXAS COAST

CITY           SKY/WX    TMP DP  RH WIND       PRES   REMARKS
ORANGE         CLEAR     89  66  46 CALM      29.99F
PORT ARTHUR    SUNNY     88  70  55 SE8       29.97F
GALVESTON      SUNNY     88  74  63 E12       29.98S
ANGLETON       SUNNY     88  74  63 SE9       29.96S
BAY CITY       CLEAR     91  73  55 SE10      29.95S
$$

TEXAS COASTAL BEND, RIO GRANDE PLAINS DEEP SOUTH TEXAS

CITY           SKY/WX    TMP DP  RH WIND       PRES   REMARKS
VICTORIA       SUNNY     97  58  27 S17       29.92F
BEEVILLE       FAIR      97  62  31 SE12G17   29.90F
ROCKPORT       SUNNY     88  72  58 SE16      29.92F
PORT ARANSAS   CLEAR     85  75  70 SE12      29.93F
PORT LAVACA    CLEAR     90  68  47 S13       29.94S
CORPUS CHRISTI PTSUNNY   91  71  51 SE20      29.92S
KINGSVILLE NAS MOSUNNY   92  75  57 SE22G28   29.90F
COTULLA        SUNNY    102  54  20 S13G18    29.85F
LAREDO         SUNNY    105  60  22 SE15G22   29.86F
BROWNSVILLE    MOSUNNY   91  76  61 SE18      29.92S
PORT ISABEL    MOSUNNY   90  76  63 SE22G29   29.92S
HEBBRONVILLE   CLEAR    102  54  20 SE12G17   29.88S
MCALLEN        SUNNY    101  69  35 SE18G24   29.86F
WESLACO        SUNNY     99  66  33 SE16G23   29.87F
FALFURRIAS     CLEAR     88  65  45 E20G28    29.87S
EDINBURG       CLEAR    101  64  29 SE17G24   29.86S
$$



USA.gov is the U.S. government's official web portal to all federal, state and local government web resources and services.